Norfolk, NE

3:40 AM CDT on May 26, 2017 (GMT -0500)
Stefan Memorial

Weather History for KOFK - August, 2013

Change the Weather History Date:

Wednesday, August 14, 2013

  Actual Average Record
Temperature  
Mean Temperature 63 °F 73 °F  
Max Temperature 68 °F 85 °F 101 °F (1936)
Min Temperature 57 °F 62 °F 45 °F (2004)
Degree Days  
Heating Degree Days 2 0  
Month to date heating degree days 2 0  
Since 1 June heating degree days 57 34  
Since 1 July heating degree days 15 4  
Cooling Degree Days 0 9  
Month to date cooling degree days 86 131  
Year to date cooling degree days 624 692  
Since 1 June cooling degree days 560 631  
Growing Degree Days 12 (Base 50)    
Moisture  
Dew Point 60 °F    
Average Humidity 88    
Maximum Humidity 100    
Minimum Humidity 76    
Precipitation  
Precipitation 0.81 in 0.11 in 2.53 in (1978)
Month to date precipitation 2.63 1.58  
Year to date precipitation 17.46 18.86  
Snow  
Snow 0.00 in 0.00 in - ()
Month to date snowfall 0.0 0.0  
Since 1 July snowfall 0.0 0.0  
Snow Depth 0.00 in    
Sea Level Pressure  
Sea Level Pressure 30.12 in    
Wind  
Wind Speed 7 mph (ESE)    
Max Wind Speed 15 mph    
Max Gust Speed 20 mph    
Visibility 6 miles    
Events Rain    
T = Trace of Precipitation, MM = Missing Value Source: NWS Daily Summary

Daily Weather History Graph

Daily Weather History Graph

Search for Another Location

Airport or City:

Trip Planner

Search our weather history database for the weather conditions in past years. The results will help you decide how hot, cold, wet, or windy it might be!

Date:

Astronomy

Aug. 14, 2013 Rise Set
Actual Time 6:36 AM CDT 8:31 PM CDT
Civil Twilight 6:06 AM CDT 9:01 PM CDT
Nautical Twilight 5:29 AM CDT 9:37 PM CDT
Astronomical Twilight 4:49 AM CDT 10:17 PM CDT
Moon 2:45 PM CDT (8/14) 12:00 AM CDT (8/14)
Length of Visible Light 14h 54m
Length of Day
13h 54m
First Quarter, 53% of the Moon is Illuminated
Aug 14
First Quarter
Aug 20
Full
Aug 28
Last Quarter
Sep 5
New
Sep 12
First Quarter

Hourly Weather History & Observations

Time (CDT) Temp. Dew Point Humidity Pressure Visibility Wind Dir Wind Speed Gust Speed Precip Events Conditions
12:56 AM 60.1 °F 57.0 °F 90% 30.17 in 8.0 mi Calm Calm - N/A   Clear
1:56 AM 57.0 °F 55.9 °F 96% 30.18 in 7.0 mi Calm Calm - N/A   Clear
2:56 AM 59.0 °F 57.0 °F 93% 30.16 in 7.0 mi ESE 4.6 mph - N/A   Clear
3:56 AM 57.9 °F 57.0 °F 97% 30.15 in 5.0 mi SE 5.8 mph - N/A   Scattered Clouds
4:56 AM 57.9 °F 55.0 °F 90% 30.16 in 8.0 mi Calm Calm - N/A   Scattered Clouds
5:56 AM 57.0 °F 54.0 °F 89% 30.17 in 10.0 mi SSE 3.5 mph - N/A   Clear
6:56 AM 57.0 °F 54.0 °F 89% 30.16 in 7.0 mi SE 4.6 mph - N/A   Partly Cloudy
7:56 AM 59.0 °F 55.0 °F 87% 30.17 in 8.0 mi Calm Calm - N/A   Overcast
8:56 AM 61.0 °F 57.0 °F 87% 30.16 in 8.0 mi SE 8.1 mph - N/A   Overcast
9:56 AM 64.0 °F 57.9 °F 80% 30.17 in 8.0 mi SSE 6.9 mph - 0.00 in Rain Light Rain
10:56 AM 64.0 °F 59.0 °F 84% 30.18 in 9.0 mi SE 5.8 mph - 0.01 in Rain Light Rain
11:56 AM 66.0 °F 60.1 °F 81% 30.17 in 9.0 mi ESE 5.8 mph - 0.01 in   Overcast
12:56 PM 68.0 °F 60.1 °F 76% 30.16 in 10.0 mi South 8.1 mph - N/A   Overcast
1:56 PM 66.9 °F 61.0 °F 81% 30.16 in 7.0 mi SSE 5.8 mph - 0.02 in Rain Light Rain
2:56 PM 66.9 °F 63.0 °F 87% 30.13 in 6.0 mi ESE 10.4 mph - 0.01 in Rain Light Rain
3:56 PM 66.9 °F 63.0 °F 87% 30.12 in 8.0 mi ESE 5.8 mph - 0.00 in   Overcast
4:56 PM 66.0 °F 63.0 °F 90% 30.10 in 6.0 mi East 8.1 mph - 0.05 in Rain Light Rain
5:44 PM 64.4 °F 62.6 °F 94% 30.10 in 2.5 mi ESE 6.9 mph - 0.06 in Rain Rain
5:56 PM 64.9 °F 62.1 °F 90% 30.09 in 3.0 mi East 8.1 mph - 0.09 in Rain Rain
5:58 PM 64.4 °F 62.6 °F 94% 30.10 in 2.5 mi ESE 8.1 mph - 0.00 in Rain Rain
6:41 PM 64.4 °F 62.6 °F 94% 30.08 in 2.5 mi ESE 10.4 mph - 0.16 in Rain Rain
6:50 PM 64.4 °F 62.6 °F 94% 30.08 in 3.0 mi ESE 12.7 mph - 0.18 in Rain Rain
6:56 PM 64.0 °F 62.1 °F 93% 30.06 in 4.0 mi ESE 12.7 mph - 0.19 in Rain Light Rain
7:56 PM 63.0 °F 61.0 °F 93% 30.06 in 8.0 mi ESE 12.7 mph - 0.04 in Rain Light Rain
8:36 PM 62.6 °F 62.6 °F 100% 30.06 in 3.0 mi ESE 10.4 mph - 0.03 in Rain Rain
8:52 PM 62.6 °F 62.6 °F 100% 30.07 in 5.0 mi SE 9.2 mph - 0.06 in Rain Light Rain
8:56 PM 63.0 °F 62.1 °F 97% 30.06 in 5.0 mi ESE 11.5 mph - 0.06 in Rain Light Rain
9:10 PM 62.6 °F 62.6 °F 100% 30.07 in 6.0 mi ESE 10.4 mph - 0.00 in   Overcast
9:17 PM 62.6 °F 60.8 °F 94% 30.07 in 6.0 mi ESE 6.9 mph - 0.00 in   Overcast
9:29 PM 62.6 °F 60.8 °F 94% 30.09 in 6.0 mi NE 5.8 mph - 0.00 in   Overcast
9:36 PM 62.6 °F 60.8 °F 94% 30.09 in 5.0 mi NE 8.1 mph - 0.01 in Rain Light Rain
9:56 PM 63.0 °F 61.0 °F 93% 30.08 in 4.0 mi ENE 11.5 mph - 0.10 in Rain Rain
10:10 PM 62.6 °F 60.8 °F 94% 30.10 in 2.5 mi ENE 9.2 mph - 0.07 in Rain Rain
10:23 PM 62.6 °F 60.8 °F 94% 30.11 in 2.5 mi Calm Calm - 0.15 in Rain Rain
10:30 PM 62.6 °F 60.8 °F 94% 30.12 in 3.0 mi North 4.6 mph - 0.17 in Rain Rain
10:49 PM 62.6 °F 60.8 °F 94% 30.10 in 4.0 mi East 12.7 mph - 0.21 in Rain Light Rain
10:56 PM 61.0 °F 60.1 °F 97% 30.09 in 4.0 mi ENE 9.2 mph - 0.23 in Rain Light Rain
11:56 PM 61.0 °F 60.1 °F 97% 30.09 in 7.0 mi East 9.2 mph - 0.00 in   Overcast